392P/LINEAR (1990)

Japanese version
Home page
Updated on December 24, 2019

---------------------------------------------------------------------

* Profile

* Orbital Elements

Epoch 1990 Jan. 29.0 TT = JDT 2447920.5                                         
T 1990 Jan. 17.63327 TT                                 Williams                
q   1.9377418            (2000.0)            P               Q                  
n   0.06517494     Peri.   70.55294     -0.10594675     -0.99364444             
a   6.1152699      Node    25.61981     +0.87615406     -0.11136754             
e   0.6831306      Incl.    5.04531     +0.47024393     -0.01637080             
P  15.1                                                                         
From 354 observations 1989 Nov. 22-2019 Nov. 30, mean residual 0".6.            

* Magnitudes Graph

        m1 = 14.5 + 5 log d + 10.0 log r

---------------------------------------------------------------------

The orbital elements are published on M.P.E.C. 2019-X94.
The magnitudes graphs are made with Comet for Windows.

---------------------------------------------------------------------

Copyright(C) Seiichi Yoshida (comet@aerith.net). All rights reserved.